Location: Caltech
(34.1382°N, 118.1253°W)
Time: 00:23:33
(UTC-07:00)

SEDSat Delta rocket - Visible Passes

Search period start: 29 March 2015 00:00
Search period end: 08 April 2015 00:00
Orbit: 534 x 1006 km, 31.4° (Epoch: 27 March)

Date Brightness Start Highest point End Pass type
(mag) Time Alt. Az. Time Alt. Az. Time Alt. Az.
29 Mar 5.2 05:02:39 13° S 05:02:39 13° S 05:03:34 10° SSE visible
31 Mar 5.9 21:40:11 10° SW 21:40:23 11° SW 21:40:23 11° SW visible
01 Apr 4.7 21:00:26 10° SW 21:03:35 24° S 21:03:35 24° S visible
02 Apr 4.5 20:20:41 10° SSW 20:25:11 25° SSE 20:26:42 22° SE visible
02 Apr 5.8 22:06:14 10° WSW 22:06:55 14° WSW 22:06:55 14° WSW visible
03 Apr 4.8 19:40:56 10° SSW 19:45:29 24° SSE 19:49:39 10° ESE visible
03 Apr 4.3 21:26:19 10° WSW 21:29:56 36° SW 21:29:56 36° SW visible
04 Apr 3.7 20:46:23 10° WSW 20:51:51 48° SSE 20:52:52 42° SE visible
04 Apr 6.2 22:32:52 10° W 22:33:05 11° W 22:33:05 11° W visible
05 Apr 4.0 20:06:26 10° WSW 20:12:07 45° SSE 20:15:43 18° E visible
05 Apr 4.8 21:52:53 10° W 21:55:55 32° WSW 21:55:55 32° WSW visible
06 Apr 3.4 21:12:52 10° WSW 21:18:36 65° S 21:18:42 65° S visible
07 Apr 3.6 20:32:50 10° WSW 20:38:49 65° S 20:41:24 30° ESE visible
07 Apr 5.5 22:19:40 10° W 22:21:35 21° W 22:21:35 21° W visible
